CAPE
7 22 24 15 8 22 0 0 0 0 0 0 0 0 0 2 1 3 0 0 0 0 0 0 0 0 0 0 0 0 0 0 1 0 0 0 0 0 0 0 0 0 0 0
5 14 10 5 3 20 3 0 0 0 0 0 0 0 0 1 1 0 1 0 0 0 0 0 0 0 0 0 0 0 0 0 0 0 0 0 1 0 0 0 0 0 0 0
1 14 7 3 0 7 0 0 0 0 0 0 0 0 0 0 1 0 0 0 0 0 0 0 0 0 0 0 0 0 0 0 0 0 0 0 0 0 0 0 0 0 0 0
1 5 7 2 0 0 0 0 0 1 0 0 1 0 0 0 12 5 0 1 0 0 0 0 0 0 0 0 0 0 0 0 0 0 0 0 0 0 0 0 0 0 0 0
9 0 8 4 1 0 0 1 2 0 0 0 0 1 0 11 5 0 0 1 0 0 0 0 0 0 0 0 0 0 0 0 0 0 0 0 0 0 0 0 0 0 0 0
12 4 6 6 3 3 0 0 0 1 0 0 0 0 1 2 0 5 2 0 0 0 0 0 0 0 0 0 0 0 0 0 0 0 0 0 0 0 0 0 0 0 0 0
13 2 4 11 3 15 1 0 2 1 0 0 0 0 1 0 3 0 4 0 0 0 0 0 0 0 0 0 0 0 0 0 0 0 0 0 0 0 0 0 0 0 0 0
13 2 0 1 7 6 0 0 1 1 0 0 0 0 1 0 0 0 0 0 0 0 0 0 0 0 0 0 1 0 0 0 0 0 0 0 0 0 0 0 0 0 0 0
1 7 4 1 0 4 0 0 0 2 1 0 0 0 0 0 0 0 0 0 0 0 0 0 0 0 0 0 1 1 0 0 0 0 0 0 0 0 0 0 0 1 5 0
6 4 16 0 0 1 0 0 1 1 1 0 0 0 1 0 0 0 0 0 0 0 0 0 0 0 0 0 0 0 1 1 0 0 0 0 0 0 0 0 0 0 0 0
19 3 2 12 0 3 9 0 4 1 0 1 0 0 4 5 0 0 0 0 0 0 0 0 0 0 0 0 0 0 0 0 0 0 0 0 0 0 0 0 0 0 0 0
16 17 1 10 9 3 24 2 10 0 1 0 0 0 0 0 0 7 0 0 0 0 0 0 0 0 0 0 0 0 0 0 0 0 0 0 0 0 0 0 0 0 0 0
16 16 12 13 17 7 17 3 0 0 1 0 1 0 0 0 0 0 6 3 1 1 0 0 0 0 0 0 0 0 0 0 0 0 0 0 0 0 0 0 0 0 0 0
16 11 7 16 15 18 18 15 3 3 1 1 0 4 12 2 0 0 0 0 0 0 2 3 2 0 0 0 0 0 0 0 0 0 0 0 0 0 0 0 0 0 0 0
19 11 17 11 15 20 20 9 0 3 0 0 0 0 0 0 0 0 0 0 4 7 19 11 1 0 0 0 0 0 0 0 0 0 0 0 0 0 0 0 0 0 0 0
12 13 12 10 29 22 7 0 0 0 2 1 0 0 6 9 2 4 9 13 5 18 27 21 7 1 4 0 1 0 0 0 0 0 0 0 0 0 0 0 0 0 0 0
11 9 6 10 37 13 0 0 1 1 0 1 0 0 8 12 9 7 6 8 13 3 11 3 7 2 4 4 1 0 0 0 0 0 0 0 0 0 0 0 0 0 0 0
2 0 9 38 28 8 1 0 1 11 1 3 0 0 0 1 3 5 3 0 1 3 2 2 9 6 4 0 0 0 0 0 0 0 0 0 0 0 0 0 0 0 0 0
0 0 16 1 0 0 0 0 2 10 1 1 1 0 0 0 11 6 2 1 1 1 1 3 11 1 1 0 0 0 0 0 0 0 0 0 0 0 0 0 0 0 0 0
0 11 1 0 0 0 3 1 2 1 1 1 0 1 0 1 3 5 9 2 0 0 0 1 3 0 1 0 0 0 0 0 0 0 0 0 0 0 0 0 0 0 0 0
3 3 1 0 5 4 5 0 1 0 1 1 2 1 2 0 2 0 1 0 0 0 0 0 0 1 0 0 0 0 0 0 0 0 0 0 0 0 0 0 0 0 0 0
0 0 0 1 2 2 0 0 0 0 0 3 6 3 0 0 0 1 1 0 0 0 0 0 0 0 0 0 0 0 0 1 0 0 0 0 0 0 0 0 0 0 0 0
0 1 1 1 0 0 2 1 1 1 1 0 0 0 0 0 0 0 0 0 0 0 0 0 0 0 0 0 0 0 0 1 0 0 0 0 0 0 0 0 0 0 0 0
1 0 0 0 0 0 0 0 0 0 0 0 0 0 0 0 0 0 0 0 0 0 0 0 0 0 0 0 0 0 1 1 0 0 0 0 0 0 0 0 0 0 0 0
0 0 0 0 0 0 0 1 1 0 0 0 0 0 0 0 0 0 0 0 0 0 0 0 0 0 0 0 0 1 1 1 1 0 0 0 0 0 0 0 0 0 0 0
0 0 0 0 0 0 0 0 0 0 0 0 0 0 0 0 0 0 0 0 0 0 0 0 0 0 0 0 0 0 1 1 1 0 0 0 0 0 0 0 0 0 0 0
1 0 0 0 0 0 0 1 1 0 0 0 0 0 0 0 1 0 0 0 0 0 0 0 0 0 0 0 0 0 0 0 1 0 0 0 0 0 0 0 0 0 0 0
CIN
0 0 0 0 0 0 0 0 0 0 0 0 0 0 0 0 0 0 0 0 0 0 0 0 0 0 0 0 0 0 0 0 0 0 0 0 0 0 0 0 0 0 0 0
-1 0 0 0 0 -1 0 0 0 0 0 0 0 0 0 0 0 0 -3 0 0 0 0 0 0 0 0 0 0 0 0 0 0 -1 0 0 -4 -1 0 0 0 0 0 0
0 -1 0 -1 0 -3 0 0 0 0 0 0 0 0 0 0 0 -10 0 0 0 0 0 0 0 0 0 0 0 0 0 0 0 0 0 0 0 0 0 0 0 0 0 0
-1 0 -1 0 0 0 0 0 -2 -1 0 0 0 0 0 0 -1 -17 0 -2 0 0 0 0 0 0 0 0 0 0 0 0 0 0 0 0 0 0 0 0 0 0 0 0
0 0 0 0 0 0 -3 0 -2 -1 0 0 0 0 0 0 -5 0 0 -3 -7 0 0 0 0 0 0 0 0 0 0 0 0 0 0 0 0 0 0 0 0 0 0 0
0 -1 0 0 0 -1 0 0 0 0 0 0 0 0 0 0 0 -1 -2 0 0 0 0 0 0 0 0 0 0 0 -1 0 0 0 0 0 0 0 0 0 0 0 0 0
0 0 0 0 0 -1 -1 -1 0 0 0 0 0 0 0 0 0 -1 -1 -1 0 0 0 0 0 0 0 0 0 0 0 0 0 0 0 0 0 0 0 0 0 0 0 0
0 -2 0 0 0 0 -1 0 0 0 0 0 0 0 0 0 -1 0 0 0 0 0 0 0 -3 -7 0 -9 -20 0 0 -7 0 0 0 0 0 0 0 0 0 0 0 0
0 -4 0 0 0 0 0 0 0 0 0 0 0 0 0 0 0 0 0 0 0 0 0 0 0 0 0 -2 -4 -14 -5 -8 0 0 0 0 0 0 0 0 0 -2 -7 0
-1 -2 0 0 0 0 0 0 -1 0 0 0 0 0 -2 0 0 0 0 0 0 0 0 0 0 0 0 0 0 0 -1 -2 0 -4 -3 0 0 0 0 0 0 0 0 0
0 -3 -1 0 0 0 -3 0 -1 0 0 0 0 0 -1 -9 -3 0 0 0 0 0 0 0 0 0 0 0 0 0 0 0 0 0 -2 0 0 0 0 0 0 0 0 0
0 0 0 0 0 -1 -4 -1 -5 -1 0 0 0 0 0 0 -1 -21 0 0 0 0 0 0 0 0 0 0 0 0 0 0 0 0 0 0 0 0 0 0 0 0 0 0
0 0 0 0 0 0 0 -6 -1 -1 0 0 0 0 -4 0 0 0 -3 -25 -50 -11 0 0 0 0 0 0 0 0 0 0 0 0 0 0 0 0 0 0 0 0 0 0
0 0 0 -1 -2 -2 0 -1 -6 -3 0 0 -9 -12 -13 -41 0 -16 -17 0 0 0 -48 -23 -16 -3 0 0 0 -6 -7 0 0 0 0 0 0 0 0 0 0 0 0 0
0 0 0 -1 -1 -2 -1 -8 0 -4 0 0 0 0 0 0 0 -3 0 0 -16 -11 -5 -6 -7 -5 -4 0 0 0 0 0 0 0 0 0 0 0 0 0 0 0 0 0
0 0 -2 -8 0 -2 -3 0 0 0 -1 0 0 0 -14 -27 -28 -20 -11 -8 -8 -4 -2 -2 -3 -3 -9 0 0 0 0 0 0 0 0 0 0 0 0 0 0 0 0 0
0 -1 -3 -20 -1 -3 0 0 0 0 0 0 0 0 -12 -11 -5 -7 -8 -8 -1 -5 -2 -2 -1 -3 0 0 -1 0 0 0 0 0 0 0 0 0 0 0 0 0 0 0
0 0 -12 -17 -5 -3 0 0 0 0 0 0 0 0 0 -6 -2 0 -4 -1 -2 -3 0 0 0 -1 -1 -2 0 0 0 0 0 0 0 0 0 0 0 0 0 0 0 0
0 0 -8 -3 0 0 0 0 -1 0 0 0 0 0 -1 -1 -2 -1 -4 0 -1 0 0 0 -1 0 -1 0 0 0 0 0 0 0 0 0 0 0 0 0 0 0 0 0
-5 -6 -7 -1 0 0 -2 0 0 0 0 0 0 -6 -5 -5 -3 -1 0 0 0 0 0 -1 0 0 0 0 0 0 0 0 0 0 0 0 0 0 0 0 0 0 0 0
0 0 0 0 -7 0 0 0 0 0 -1 0 0 -1 0 0 0 -1 0 0 0 0 0 0 0 0 0 0 0 0 0 0 0 0 0 0 0 0 0 0 0 0 0 0
0 0 0 0 0 0 0 0 0 0 -1 0 -1 0 -1 -1 0 0 0 0 0 0 0 0 0 0 0 0 0 0 0 0 0 0 0 0 0 0 0 0 0 0 0 0
0 0 0 0 0 0 0 0 0 0 0 0 0 0 0 0 0 0 0 0 0 0 0 0 0 0 0 0 0 0 0 0 0 0 0 0 0 0 0 0 0 0 0 0
0 0 0 0 0 0 0 0 0 0 0 0 0 0 0 0 -1 0 0 0 0 0 0 0 0 0 0 0 0 0 0 0 0 0 0 0 0 0 0 0 0 0 0 0
0 0 0 0 0 0 0 0 0 0 0 0 0 0 0 0 0 0 0 0 0 0 0 0 0 0 0 0 0 0 0 0 0 0 0 0 0 0 0 0 0 0 0 0
0 0 0 0 0 0 0 0 0 0 0 0 0 0 0 -1 0 0 0 0 0 0 0 0 0 0 0 0 0 0 0 0 0 0 0 0 0 0 0 0 0 0 0 0
0 0 0 0 0 0 0 0 0 0 0 0 0 0 0 0 0 0 0 0 0 0 0 0 0 0 0 0 0 0 0 0 0 0 0 0 0 0 0 0 0 0 0 0
Wind_Speed
37 39 39 37 34 32 0 12 24 10 7 7 9 7 9 11 12 10 13 16 17 22 22 21 21 18 19 19 15 14 15 12 14 16 17 19 20 20 18 20 21 19 20 25
37 39 38 33 30 29 15 20 11 11 8 11 7 9 9 13 12 12 11 17 15 16 19 20 18 18 15 22 20 17 16 14 11 16 18 19 22 22 19 16 17 20 20 21
37 39 40 33 26 26 13 4 19 9 8 13 7 8 8 11 12 13 15 15 15 15 14 14 20 21 17 25 24 18 17 17 17 18 16 16 19 22 21 20 20 21 23 27
36 39 38 34 26 13 13 11 12 10 10 7 6 9 10 13 15 15 12 16 16 14 15 13 18 18 16 19 20 21 19 21 20 20 20 20 21 22 27 31 30 26 26 32
34 37 36 33 28 8 19 17 13 12 12 10 9 5 7 5 10 13 15 15 12 12 14 18 19 16 17 20 19 20 20 21 20 22 21 24 27 28 29 32 34 36 34 35
31 34 34 32 25 21 17 13 13 14 13 9 9 6 4 4 8 5 5 9 7 7 10 9 7 10 13 15 15 17 18 19 20 21 21 22 26 26 30 27 25 22 33 28
30 31 32 30 21 18 5 11 16 14 14 11 10 10 9 6 4 9 9 9 7 10 13 5 3 4 7 9 11 14 14 17 18 21 20 23 19 20 19 19 26 16 26 29
29 27 27 26 17 11 15 16 15 17 16 16 14 10 10 12 9 7 7 8 11 13 10 7 10 14 14 13 13 14 16 16 18 20 22 25 22 17 14 15 18 15 16 25
27 25 22 17 11 16 18 17 16 17 18 15 17 14 14 13 11 11 12 13 12 13 13 15 15 17 17 18 17 15 14 15 19 20 21 21 18 15 17 16 18 16 20 22
27 27 24 12 14 22 20 21 19 20 21 21 18 15 16 15 14 13 14 14 14 14 15 15 16 17 15 17 17 17 18 20 23 23 23 24 24 23 13 18 16 19 22 22
26 28 26 23 26 25 22 23 21 19 22 24 23 21 19 18 16 15 15 16 17 16 16 17 17 17 17 17 16 16 16 16 18 17 21 23 20 17 18 17 22 24 25 22
25 28 29 29 25 25 21 19 21 20 22 22 24 29 29 26 19 16 14 14 16 16 15 15 15 17 17 18 20 18 21 16 18 17 20 20 19 23 23 24 25 25 24 23
28 28 28 30 26 19 14 26 25 22 24 25 23 23 20 21 24 23 17 17 16 15 14 14 16 18 17 19 22 20 22 17 22 21 20 24 26 28 29 26 26 23 23 23
28 29 30 30 28 19 9 20 24 22 21 22 22 18 20 15 12 14 17 18 16 15 16 17 18 21 18 21 21 22 21 14 21 27 29 27 22 21 18 19 21 23 23 22
27 27 32 30 26 20 12 23 26 22 19 20 22 24 17 14 15 17 17 17 16 17 19 19 21 21 22 23 24 30 24 25 23 29 25 26 27 23 22 24 24 24 23 22
29 32 34 30 25 13 12 11 25 24 16 20 20 19 19 17 17 17 18 18 18 17 20 20 19 18 21 23 22 22 18 21 26 31 27 29 30 27 25 25 24 23 22 21
35 36 34 26 13 3 4 14 17 17 11 18 20 19 18 18 17 17 17 18 20 19 19 19 21 18 15 23 23 21 22 24 23 22 25 25 24 25 23 24 23 22 19 18
34 32 33 14 6 10 27 26 21 17 21 20 19 20 20 15 15 17 15 18 19 17 19 20 20 15 16 25 22 25 26 27 24 25 26 27 27 25 24 23 23 23 20 16
28 18 10 11 18 23 22 20 18 18 19 20 19 19 18 13 15 17 18 18 21 18 15 16 18 16 20 22 24 25 26 26 30 31 30 29 28 26 25 25 26 27 23 11
8 16 17 19 20 18 19 16 18 19 22 20 19 18 18 13 17 20 19 18 19 19 13 12 17 19 15 19 22 25 28 29 30 32 31 28 28 28 28 29 28 27 16 7
16 17 17 16 18 19 18 19 20 20 19 19 20 20 19 18 22 21 20 19 18 20 13 11 11 13 18 22 24 26 27 29 30 30 31 31 31 31 30 29 27 22 10 4
20 20 19 18 20 20 20 21 19 20 20 18 16 15 17 17 17 19 19 20 16 20 13 10 12 14 21 23 25 26 25 26 26 25 26 27 28 28 27 26 21 14 8 6
19 20 19 19 20 23 22 22 19 18 18 17 15 16 16 16 16 18 17 18 18 14 14 11 11 15 21 22 23 23 23 23 23 22 22 21 20 20 20 18 15 10 8 7
20 20 21 22 21 22 20 20 19 18 18 16 15 16 16 16 17 17 18 17 17 17 17 12 14 14 16 16 17 18 19 20 20 19 18 18 18 19 19 17 12 10 9 6
19 21 21 24 20 19 19 18 18 18 17 17 16 17 17 18 19 17 18 18 19 16 13 12 13 15 17 16 16 17 16 17 17 17 18 18 19 18 18 16 13 11 9 7
19 23 25 24 24 22 19 18 18 17 16 16 17 17 18 19 18 17 18 19 20 17 10 10 12 14 15 16 16 17 18 18 19 19 19 19 19 19 17 15 13 11 9 7
20 24 26 27 24 22 21 19 18 18 17 18 17 18 18 16 18 18 16 17 16 10 9 10 11 14 18 20 19 19 19 19 20 20 20 20 20 19 18 17 16 13 11 9
Wind_Direction
3 3 6 10 16 20 214 119 87 172 198 229 207 227 212 228 219 215 201 193 190 197 200 209 215 221 231 227 230 232 246 255 251 253 264 256 256 256 259 263 265 273 278 279
3 2 6 12 21 26 73 74 202 168 199 166 258 253 218 192 198 212 215 199 205 198 207 214 222 225 238 222 224 230 237 249 252 252 256 252 249 250 256 270 279 274 280 286
1 0 4 14 26 31 279 17 83 246 194 158 251 274 239 209 215 221 212 208 205 205 219 233 222 223 237 218 223 236 243 243 246 247 254 251 254 251 257 264 273 280 279 284
357 357 5 12 29 39 284 308 27 289 310 205 223 254 236 214 206 214 222 205 210 222 229 233 224 228 231 228 232 235 239 236 242 244 245 248 247 252 242 243 250 271 284 274
355 355 5 11 29 48 72 80 353 243 237 214 178 239 210 249 215 211 207 211 229 244 238 235 225 224 232 231 236 236 245 241 255 247 259 253 247 245 246 243 240 241 243 250
353 357 6 10 34 52 83 296 258 234 202 229 206 197 225 227 204 222 236 233 247 277 255 251 238 243 246 245 239 242 249 254 253 251 265 268 256 250 238 270 278 234 245 237
345 359 4 8 41 59 147 61 262 248 232 228 211 213 205 217 213 210 222 241 233 218 211 252 295 302 300 272 264 262 265 264 265 263 275 262 282 283 291 291 235 191 230 250
334 4 15 17 48 83 273 270 271 249 248 238 228 247 231 217 218 217 233 233 230 234 239 260 251 250 263 273 278 276 276 278 274 270 269 268 278 293 308 309 301 324 322 273
345 359 15 41 60 274 286 273 277 270 270 269 265 268 264 244 250 240 233 222 228 244 262 253 253 249 255 256 265 284 292 290 275 275 272 269 280 296 292 307 286 314 294 285
338 339 357 42 327 292 287 267 269 255 245 243 259 271 256 271 274 266 266 272 274 267 275 268 262 261 273 265 265 266 268 270 264 267 270 266 261 270 301 278 287 279 290 273
341 333 339 350 300 287 293 275 269 266 254 245 245 246 250 254 257 269 273 280 280 290 282 278 274 270 272 275 283 284 285 289 287 287 272 266 278 277 272 290 264 272 278 268
341 328 326 323 332 321 305 294 270 275 268 266 258 239 234 233 258 275 302 303 292 287 295 291 291 282 285 283 274 282 277 292 291 285 271 274 277 257 265 272 266 283 287 296
331 333 329 324 326 334 330 271 261 267 264 266 267 263 267 265 221 243 287 285 291 295 303 306 294 287 296 284 278 288 282 295 279 282 276 245 251 260 256 261 271 288 293 300
332 327 325 323 323 329 329 276 256 256 263 261 259 273 265 289 299 293 284 287 303 310 304 304 302 289 299 289 289 284 288 311 286 259 252 259 266 271 285 283 283 293 298 300
335 334 322 323 319 319 320 265 248 250 260 266 266 271 282 291 291 288 289 297 303 302 298 300 301 297 296 293 292 276 288 279 281 260 273 273 269 280 285 282 283 295 297 303
332 324 316 312 316 330 314 282 242 242 258 266 262 268 265 274 279 290 290 299 303 305 299 300 305 307 296 293 292 297 302 286 271 254 272 272 266 275 284 279 281 290 297 308
313 312 314 319 325 327 284 244 243 234 248 265 261 263 270 273 285 295 303 310 305 301 300 296 295 298 301 287 284 291 296 294 288 290 282 279 279 276 287 280 283 292 307 318
320 325 324 359 86 258 222 232 239 229 237 249 254 257 263 283 295 302 311 309 314 311 298 300 296 305 297 281 289 289 291 288 281 283 283 277 277 284 283 281 285 283 303 324
341 359 250 243 212 203 213 224 231 233 244 247 256 261 274 310 305 301 299 307 305 303 312 312 302 297 287 285 285 283 290 288 275 273 274 273 271 274 272 273 266 259 279 344
169 188 201 200 201 210 211 223 227 238 241 257 267 274 286 318 294 282 294 306 291 297 327 340 307 294 306 299 298 294 290 282 283 274 268 274 269 267 267 268 264 270 312 349
234 213 211 222 217 216 227 224 227 234 248 254 265 279 286 295 267 270 279 278 292 282 344 348 350 324 309 301 294 289 285 281 277 274 267 263 260 259 263 268 270 292 329 9
242 236 236 231 225 229 226 226 236 237 243 259 280 287 278 288 285 274 276 273 300 274 2 49 1 336 304 296 298 293 287 284 280 278 274 269 261 263 267 271 288 313 344 3
252 239 237 234 234 229 230 231 244 251 256 267 277 280 282 290 289 281 285 283 280 347 352 54 44 0 309 294 286 287 286 285 284 288 283 274 272 282 284 294 315 335 341 347
255 247 246 238 239 241 248 248 252 261 265 274 283 282 285 290 291 292 277 290 303 295 298 110 65 78 270 275 278 287 287 289 291 284 288 286 286 282 289 306 335 347 349 9
267 252 253 247 252 256 257 259 264 267 273 276 287 286 284 290 285 293 285 282 280 301 325 48 34 359 342 322 311 306 299 299 296 289 294 297 293 293 302 310 322 331 345 3
274 258 251 251 253 258 265 268 271 275 282 289 288 285 284 283 290 290 284 283 282 301 340 5 2 340 306 304 306 313 314 314 316 314 306 301 304 307 313 324 327 331 332 339
276 263 256 255 262 263 266 268 274 280 280 280 286 284 281 295 291 288 299 300 311 338 341 351 355 343 321 309 306 307 310 312 315 314 316 313 310 313 318 315 318 330 337 332